Location: ??????
(38.3184°N, 23.6932°E)
Time: 01:56:28
(UTC+00:00)

Okean-O - Pass Details

Date: 16 October 2021
Orbit: 639 x 640 km, 98.2° (Epoch: 04 December)

Event Time Altitude Azimuth Distance (km) Brightness Sun altitude
Exits shadow 16:30:06 12° 88° (E) 1,883 4.3 -9.4°
Maximum altitude 16:31:42 15° 65° (ENE) 1,752 4.3 -9.8°
Drops below altitude 10° 16:34:06 10° 32° (NNE) 2,038 4.9 -10.2°
Sets 16:37:12 0° 8° (N) 2,953 5.9 -10.8°
